FW7046 Weather Reports


Display with metric or nautical units.
time (UTC)temp
F
wind
direction
speed
MPH
gust
MPH
rain 1hr
in
rain 24hr
in
rain mn
in
humidity
%
barometer
mb
20230203122600 32 174 5.0 7.0 0.00 0.00 0.00 36 1029.4
20230203122059 32 173 3.0 3.0 0.00 0.00 0.00 36 1029.4
20230203121559 32 202 5.0 7.0 0.00 0.00 0.00 36 1029.4
20230203121058 33 183 4.0 5.0 0.00 0.00 0.00 36 1029.4
20230203120556 33 187 4.0 7.0 0.00 0.00 0.00 35 1029.5
20230203120056 32 218 4.0 6.0 0.00 0.00 0.00 36 1029.6
20230203115555 32 195 3.0 3.0 0.00 0.00 0.00 36 1029.5
20230203115055 32 200 5.0 6.0 0.00 0.00 0.00 37 1029.4
20230203114556 32 204 4.0 6.0 0.00 0.00 0.00 36 1029.7
20230203114055 32 193 5.0 6.0 0.00 0.00 0.00 37 1029.7
20230203113554 32 199 3.0 5.0 0.00 0.00 0.00 38 1029.7
20230203113053 32 194 3.0 5.0 0.00 0.00 0.00 37 1029.9
20230203112552 32 182 2.0 2.0 0.00 0.00 0.00 37 1029.4
20230203112052 32 148 3.0 3.0 0.00 0.00 0.00 37 1029.5
20230203111550 32 175 4.0 5.0 0.00 0.00 0.00 37 1029.4
20230203111048 32 164 3.0 3.0 0.00 0.00 0.00 37 1029.4
20230203110547 32 185 3.0 3.0 0.00 0.00 0.00 37 1029.4
20230203110047 32 204 2.0 2.0 0.00 0.00 0.00 38 1029.3
20230203105545 32 187 3.0 3.0 0.00 0.00 0.00 38 1029.4
20230203105045 31 205 3.0 3.0 0.00 0.00 0.00 39 1029.6
20230203104544 31 161 2.0 2.0 0.00 0.00 0.00 40 1029.3
20230203104045 31 220 3.0 3.0 0.00 0.00 0.00 41 1029.5
20230203103543 31 189 3.0 3.0 0.00 0.00 0.00 40 1029.7
20230203103042 31 194 3.0 3.0 0.00 0.00 0.00 40 1029.6
20230203102541 31 187 3.0 3.0 0.00 0.00 0.00 41 1029.6
20230203102040 31 205 2.0 2.0 0.00 0.00 0.00 41 1029.9
20230203101540 31 236 1.0 1.0 0.00 0.00 0.00 41 1029.7
20230203101038 31 195 3.0 3.0 0.00 0.00 0.00 41 1029.7
20230203100538 31 210 2.0 2.0 0.00 0.00 0.00 41 1029.9
20230203100037 31 228 2.0 3.0 0.00 0.00 0.00 41 1030.0
20230203095537 30 199 3.0 3.0 0.00 0.00 0.00 43 1029.9
20230203095037 30 203 0.0 1.0 0.00 0.00 0.00 43 1029.5
20230203094537 30 205 1.0 2.0 0.00 0.00 0.00 43 1029.9
20230203094036 30 213 1.0 1.0 0.00 0.00 0.00 43 1029.9
20230203093536 30 211 1.0 1.0 0.00 0.00 0.00 44 1030.1
20230203093035 30 196 1.0 1.0 0.00 0.00 0.00 44 1029.9
20230203092533 30 228 0.0 0.0 0.00 0.00 0.00 45 1029.9
20230203092032 30 234 1.0 1.0 0.00 0.00 0.00 44 1029.6
20230203091532 30 192 1.0 1.0 0.00 0.00 0.00 45 1030.0
20230203091031 31 197 1.0 1.0 0.00 0.00 0.00 44 1029.9
20230203090530 31 200 2.0 2.0 0.00 0.00 0.00 45 1030.1
20230203090029 31 202 1.0 2.0 0.00 0.00 0.00 45 1030.3
20230203085529 30 199 2.0 2.0 0.00 0.00 0.00 45 1030.2
20230203085029 30 210 1.0 1.0 0.00 0.00 0.00 45 1030.3
20230203084528 31 207 0.0 1.0 0.00 0.00 0.00 45 1030.1
20230203084027 30 191 1.0 1.0 0.00 0.00 0.00 47 1030.2
20230203083526 31 205 1.0 1.0 0.00 0.00 0.00 46 1030.1
20230203083026 31 229 1.0 1.0 0.00 0.00 0.00 45 1030.1
20230203082525 32 208 1.0 1.0 0.00 0.00 0.00 45 1030.2
20230203082024 32 214 2.0 2.0 0.00 0.00 0.00 45 1030.2
20230203081524 31 184 0.0 1.0 0.00 0.00 0.00 47 1030.6
20230203081023 31 254 2.0 2.0 0.00 0.00 0.00 48 1030.4
20230203080522 30 242 1.0 1.0 0.00 0.00 0.00 49 1030.6
20230203080021 30 214 3.0 5.0 0.00 0.00 0.00 49 1030.6
20230203075520 29 202 2.0 2.0 0.00 0.00 0.00 52 1030.4
20230203075018 30 192 3.0 3.0 0.00 0.00 0.00 53 1030.6
20230203074517 29 184 1.0 2.0 0.00 0.00 0.00 53 1030.7
20230203074016 29 191 1.0 1.0 0.00 0.00 0.00 53 1030.7
20230203073516 28 214 1.0 1.0 0.00 0.00 0.00 54 1030.7
20230203073015 27 194 0.0 1.0 0.00 0.00 0.00 59 1030.7
20230203072514 27 238 0.0 1.0 0.00 0.00 0.00 61 1030.8
20230203072013 27 234 0.0 0.0 0.00 0.00 0.00 61 1030.9
20230203071512 24 193 1.0 1.0 0.00 0.00 0.00 70 1030.9
20230203071010 23 203 1.0 1.0 0.00 0.00 0.00 73 1030.9
20230203070510 23 226 1.0 1.0 0.00 0.00 0.00 73 1031.3
20230203070007 23 221 0.0 0.0 0.00 0.00 0.00 76 1031.3
20230203065507 23 186 1.0 1.0 0.00 0.00 0.00 76 1031.5
20230203065004 22 190 0.0 0.0 0.00 0.00 0.00 79 1031.4
20230203064504 22 179 0.0 1.0 0.00 0.00 0.00 79 1031.3
20230203064003 22 206 0.0 0.0 0.00 0.00 0.00 78 1031.6
20230203063501 22 201 0.0 0.0 0.00 0.00 0.00 78 1031.4
20230203063000 22 192 0.0 0.0 0.00 0.00 0.00 79 1031.4
20230203062500 23 202 0.0 0.0 0.00 0.00 0.00 79 1031.4
20230203062000 23 185 1.0 1.0 0.00 0.00 0.00 79 1031.6
20230203061500 23 181 0.0 0.0 0.00 0.00 0.00 79 1031.7
20230203060959 23 197 0.0 0.0 0.00 0.00 0.00 78 1031.7
20230203060459 24 198 0.0 0.0 0.00 0.00 0.00 78 1031.6
20230203055959 24 202 0.0 0.0 0.00 0.00 0.00 78 1031.6
20230203055459 24 165 0.0 0.0 0.00 0.00 0.00 77 1031.6
20230203054958 23 179 0.0 0.0 0.00 0.00 0.00 79 1031.6
20230203054458 24 180 0.0 0.0 0.00 0.00 0.00 78 1031.5
20230203053957 24 179 0.0 0.0 0.00 0.00 0.00 77 1031.5
20230203053456 24 135 0.0 0.0 0.00 0.00 0.00 77 1031.4
20230203052956 24 129 0.0 0.0 0.00 0.00 0.00 77 1031.4
20230203052455 24 201 0.0 0.0 0.00 0.00 0.00 77 1031.5
20230203051955 24 199 0.0 0.0 0.00 0.00 0.00 76 1031.4
20230203051454 25 240 0.0 0.0 0.00 0.00 0.00 75 1031.7
20230203050952 25 212 1.0 1.0 0.00 0.00 0.00 75 1031.5
20230203050452 24 178 2.0 2.0 0.00 0.00 0.00 77 1031.3
20230203045950 24 199 1.0 2.0 0.00 0.00 0.00 78 1031.7
20230203045448 24 188 0.0 0.0 0.00 0.00 0.00 78 1031.6
20230203044946 25 210 0.0 0.0 0.00 0.00 0.00 77 1031.5
20230203044446 25 201 0.0 0.0 0.00 0.00 0.00 77 1031.4
20230203043945 25 219 0.0 0.0 0.00 0.00 0.00 77 1031.7
20230203043444 25 188 0.0 0.0 0.00 0.00 0.00 77 1031.9
20230203042943 26 184 1.0 1.0 0.00 0.00 0.00 76 1031.7
20230203042443 26 210 0.0 0.0 0.00 0.00 0.00 75 1031.6
20230203041941 26 177 0.0 0.0 0.00 0.00 0.00 75 1031.6
20230203041439 26 123 0.0 1.0 0.00 0.00 0.00 75 1031.7
20230203040939 26 234 1.0 1.0 0.00 0.00 0.00 75 1031.5
20230203040438 26 177 0.0 0.0 0.00 0.00 0.00 75 1031.5
20230203035936 27 203 0.0 0.0 0.00 0.00 0.00 74 1031.5
20230203035435 27 197 1.0 1.0 0.00 0.00 0.00 73 1031.7
20230203034935 28 208 0.0 0.0 0.00 0.00 0.00 73 1031.6
20230203034435 28 199 0.0 0.0 0.00 0.00 0.00 73 1031.5
20230203033935 28 231 1.0 2.0 0.00 0.00 0.00 73 1031.5
20230203033434 28 192 0.0 0.0 0.00 0.00 0.00 72 1031.7
20230203032933 29 191 1.0 1.0 0.00 0.00 0.00 70 1031.4
20230203032432 29 210 0.0 0.0 0.00 0.00 0.00 69 1031.6
20230203031932 30 186 0.0 0.0 0.00 0.00 0.00 69 1031.7
20230203031430 31 195 0.0 0.0 0.00 0.00 0.00 67 1031.4
20230203030929 29 197 0.0 0.0 0.00 0.00 0.00 70 1031.5
20230203030428 30 202 0.0 0.0 0.00 0.00 0.00 69 1031.6
20230203025927 30 194 0.0 1.0 0.00 0.00 0.00 69 1031.3
20230203025426 30 209 0.0 0.0 0.00 0.00 0.00 68 1031.1
20230203024925 32 197 0.0 1.0 0.00 0.00 0.00 67 1031.6
20230203024423 32 180 0.0 0.0 0.00 0.00 0.00 66 1031.3
20230203023921 33 179 1.0 1.0 0.00 0.00 0.00 64 1031.4
20230203023419 32 211 0.0 0.0 0.00 0.00 0.00 66 1031.5
20230203022918 32 195 0.0 0.0 0.00 0.00 0.00 64 1031.3
20230203022418 33 195 0.0 0.0 0.00 0.00 0.00 63 1031.5
20230203021917 33 204 0.0 0.0 0.00 0.00 0.00 62 1031.1
20230203021416 34 204 0.0 0.0 0.00 0.00 0.00 61 1031.0
20230203020916 34 205 0.0 0.0 0.00 0.00 0.00 60 1031.1
20230203020415 35 224 1.0 1.0 0.00 0.00 0.00 58 1031.3
20230203015914 37 204 0.0 0.0 0.00 0.00 0.00 57 1030.7
20230203015412 37 140 0.0 0.0 0.00 0.00 0.00 55 1030.9
20230203014910 37 179 0.0 0.0 0.00 0.00 0.00 56 1030.8
20230203014409 38 178 0.0 0.0 0.00 0.00 0.00 54 1030.9
20230203013909 39 12 1.0 2.0 0.00 0.00 0.00 52 1031.0
20230203013407 38 24 1.0 2.0 0.00 0.00 0.00 52 1030.6
20230203012907 39 113 0.0 1.0 0.00 0.00 0.00 50 1030.7
20230203012406 38 359 1.0 1.0 0.00 0.00 0.00 48 1030.4
20230203011906 39 180 0.0 0.0 0.00 0.00 0.00 46 1030.6
20230203011405 40 210 0.0 0.0 0.00 0.00 0.00 45 1030.1
20230203010904 40 230 0.0 0.0 0.00 0.00 0.00 44 1030.6
20230203010403 40 231 0.0 0.0 0.00 0.00 0.00 45 1030.1
20230203005903 40 231 0.0 0.0 0.00 0.00 0.00 44 1030.2
20230203005402 40 231 0.0 0.0 0.00 0.00 0.00 46 1030.2
20230203004901 40 231 0.0 0.0 0.00 0.00 0.00 46 1030.1
20230203004400 40 231 0.0 0.0 0.00 0.00 0.00 44 1030.0
20230203003900 39 210 0.0 0.0 0.00 0.00 0.00 45 1030.0
20230203003400 40 210 0.0 0.0 0.00 0.00 0.00 45 1029.7
20230203002900 42 210 0.0 0.0 0.00 0.00 0.00 42 1029.7
20230203002400 43 211 0.0 0.0 0.00 0.00 0.00 40 1029.7
20230203001859 44 197 0.0 0.0 0.00 0.00 0.00 39 1029.4
20230203001357 45 206 0.0 0.0 0.00 0.00 0.00 38 1029.5
20230203000855 45 232 1.0 1.0 0.00 0.00 0.00 36 1029.9
20230203000355 46 241 1.0 1.0 0.00 0.00 0.00 36 1029.6
20230202235854 46 196 1.0 1.0 0.00 0.00 0.00 36 1029.4
20230202235353 47 221 0.0 1.0 0.00 0.00 0.00 36 1029.5
20230202234853 47 208 0.0 1.0 0.00 0.00 0.00 35 1029.4
20230202234352 48 240 1.0 1.0 0.00 0.00 0.00 34 1029.4
20230202233852 49 208 1.0 2.0 0.00 0.00 0.00 33 1029.0
20230202233351 49 205 0.0 1.0 0.00 0.00 0.00 33 1029.1
20230202232850 49 228 0.0 0.0 0.00 0.00 0.00 32 1028.7
20230202232349 49 313 1.0 2.0 0.00 0.00 0.00 33 1028.7
20230202231849 50 234 0.0 1.0 0.00 0.00 0.00 33 1028.6
20230202231348 50 258 1.0 1.0 0.00 0.00 0.00 31 1028.7
20230202230844 49 206 0.0 1.0 0.00 0.00 0.00 33 1028.3
20230202230342 48 197 1.0 1.0 0.00 0.00 0.00 34 1028.3
20230202225841 48 143 1.0 2.0 0.00 0.00 0.00 34 1028.6
20230202225340 49 191 1.0 1.0 0.00 0.00 0.00 33 1028.6
20230202224840 48 175 1.0 1.0 0.00 0.00 0.00 33 1028.3
20230202224338 48 105 0.0 0.0 0.00 0.00 0.00 34 1028.6
20230202223837 48 96 5.0 6.0 0.00 0.00 0.00 33 1028.2
20230202223337 49 109 2.0 3.0 0.00 0.00 0.00 33 1028.2
20230202222836 48 203 2.0 2.0 0.00 0.00 0.00 33 1028.4
20230202222336 48 77 2.0 2.0 0.00 0.00 0.00 34 1028.4
20230202221835 48 124 2.0 3.0 0.00 0.00 0.00 33 1028.3
20230202221334 48 327 3.0 3.0 0.00 0.00 0.00 33 1028.3
20230202220833 49 179 1.0 2.0 0.00 0.00 0.00 33 1028.1
20230202220332 49 112 1.0 1.0 0.00 0.00 0.00 33 1028.6
20230202215831 48 201 1.0 2.0 0.00 0.00 0.00 33 1028.2
20230202215331 49 196 0.0 0.0 0.00 0.00 0.00 33 1028.2
20230202214830 49 104 2.0 5.0 0.00 0.00 0.00 34 1028.2
20230202214329 49 210 1.0 1.0 0.00 0.00 0.00 33 1027.9
20230202213828 49 94 1.0 2.0 0.00 0.00 0.00 35 1028.0
20230202213327 49 213 3.0 5.0 0.00 0.00 0.00 34 1027.6
20230202212827 48 179 2.0 3.0 0.00 0.00 0.00 37 1027.7
20230202212326 48 236 1.0 1.0 0.00 0.00 0.00 36 1028.2
20230202211826 48 88 1.0 2.0 0.00 0.00 0.00 36 1028.3
20230202211326 48 102 5.0 7.0 0.00 0.00 0.00 35 1028.3
20230202210825 48 88 4.0 6.0 0.00 0.00 0.00 35 1028.1
20230202210323 47 72 2.0 3.0 0.00 0.00 0.00 35 1028.2
20230202205823 47 153 2.0 3.0 0.00 0.00 0.00 35 1028.3
20230202205322 48 121 3.0 3.0 0.00 0.00 0.00 34 1028.2
20230202204821 47 219 1.0 1.0 0.00 0.00 0.00 36 1028.4
20230202204321 48 181 2.0 3.0 0.00 0.00 0.00 33 1028.0
20230202203821 47 137 4.0 5.0 0.00 0.00 0.00 35 1028.3
20230202203321 47 177 3.0 3.0 0.00 0.00 0.00 36 1028.3
20230202202820 46 188 2.0 2.0 0.00 0.00 0.00 35 1028.4
20230202202319 46 230 2.0 3.0 0.00 0.00 0.00 36 1028.7
20230202201818 47 100 2.0 5.0 0.00 0.00 0.00 35 1028.6
20230202201317 46 197 3.0 3.0 0.00 0.00 0.00 37 1028.8
20230202200817 46 74 2.0 3.0 0.00 0.00 0.00 37 1028.7
20230202200315 47 187 3.0 3.0 0.00 0.00 0.00 35 1028.8
20230202195815 46 202 2.0 2.0 0.00 0.00 0.00 36 1028.8
20230202195315 46 61 2.0 3.0 0.00 0.00 0.00 36 1029.0
20230202194814 46 128 1.0 3.0 0.00 0.00 0.00 36 1028.8
20230202194312 45 87 3.0 5.0 0.00 0.00 0.00 37 1029.0
20230202193811 45 103 3.0 3.0 0.00 0.00 0.00 37 1028.8
20230202193310 45 218 2.0 2.0 0.00 0.00 0.00 37 1029.1
20230202192809 46 93 3.0 6.0 0.00 0.00 0.00 37 1029.3
20230202192309 46 125 2.0 3.0 0.00 0.00 0.00 34 1029.1
20230202191808 47 110 3.0 3.0 0.00 0.00 0.00 34 1029.3
20230202191307 48 71 2.0 2.0 0.00 0.00 0.00 33 1029.4
20230202190805 48 107 0.0 1.0 0.00 0.00 0.00 31 1029.4
20230202190305 48 94 1.0 1.0 0.00 0.00 0.00 33 1029.4
20230202185805 48 230 1.0 1.0 0.00 0.00 0.00 33 1029.6
20230202185306 46 213 1.0 2.0 0.00 0.00 0.00 34 1029.5
20230202184802 46 210 1.0 1.0 0.00 0.00 0.00 34 1029.5
20230202184301 46 182 1.0 2.0 0.00 0.00 0.00 35 1029.5
20230202183800 47 253 3.0 3.0 0.00 0.00 0.00 33 1029.6
20230202183258 47 255 2.0 2.0 0.00 0.00 0.00 33 1029.7
20230202182749 46 229 1.0 1.0 0.00 0.00 0.00 34 1029.9
20230202182249 45 182 0.0 0.0 0.00 0.00 0.00 34 1029.7
20230202181749 46 183 1.0 2.0 0.00 0.00 0.00 34 1030.0
20230202181248 45 257 2.0 2.0 0.00 0.00 0.00 35 1030.1
20230202180748 44 152 1.0 1.0 0.00 0.00 0.00 35 1030.0
20230202180247 44 243 4.0 5.0 0.00 0.00 0.00 35 1029.9
20230202175747 44 195 1.0 2.0 0.00 0.00 0.00 35 1030.3
20230202175247 44 193 1.0 2.0 0.00 0.00 0.00 36 1030.1
20230202174745 43 215 2.0 3.0 0.00 0.00 0.00 36 1030.4
20230202174245 42 197 2.0 2.0 0.00 0.00 0.00 36 1030.4
20230202173745 42 241 1.0 2.0 0.00 0.00 0.00 36 1030.4
20230202173246 41 225 1.0 1.0 0.00 0.00 0.00 37 1030.4
20230202172745 41 235 0.0 1.0 0.00 0.00 0.00 36 1030.7
20230202172244 40 123 3.0 3.0 0.00 0.00 0.00 37 1030.6
20230202171742 41 191 5.0 7.0 0.00 0.00 0.00 36 1030.9
20230202171241 40 170 3.0 5.0 0.00 0.00 0.00 36 1030.2
20230202170740 39 185 2.0 2.0 0.00 0.00 0.00 37 1030.4
20230202170239 39 219 2.0 3.0 0.00 0.00 0.00 38 1030.2
20230202165739 38 193 3.0 5.0 0.00 0.00 0.00 39 1030.1
20230202165239 38 169 2.0 2.0 0.00 0.00 0.00 39 1030.3
20230202164738 37 172 2.0 2.0 0.00 0.00 0.00 40 1030.4
20230202164236 36 202 5.0 7.0 0.00 0.00 0.00 40 1030.1
20230202163735 36 189 3.0 5.0 0.00 0.00 0.00 41 1030.4
20230202163234 36 192 3.0 3.0 0.00 0.00 0.00 42 1030.0
20230202162733 36 207 1.0 3.0 0.00 0.00 0.00 42 1030.1
20230202162232 35 179 1.0 1.0 0.00 0.00 0.00 43 1030.2
20230202161731 34 196 4.0 5.0 0.00 0.00 0.00 43 1030.1
20230202161230 34 176 2.0 2.0 0.00 0.00 0.00 44 1030.2
20230202160730 33 218 2.0 3.0 0.00 0.00 0.00 45 1030.2
20230202160226 33 201 4.0 5.0 0.00 0.00 0.00 46 1029.9
20230202155727 33 209 4.0 6.0 0.00 0.00 0.00 45 1030.0
20230202155226 33 203 2.0 3.0 0.00 0.00 0.00 46 1029.9
20230202154724 32 195 3.0 5.0 0.00 0.00 0.00 47 1029.6
20230202154224 32 224 3.0 3.0 0.00 0.00 0.00 47 1029.5
20230202153722 32 183 3.0 3.0 0.00 0.00 0.00 47 1029.5
20230202153222 31 170 3.0 3.0 0.00 0.00 0.00 48 1029.5
20230202152722 30 179 1.0 2.0 0.00 0.00 0.00 50 1029.6
20230202152221 29 184 2.0 3.0 0.00 0.00 0.00 50 1029.3
20230202151720 29 203 1.0 2.0 0.00 0.00 0.00 51 1029.4
20230202151218 28 151 2.0 2.0 0.00 0.00 0.00 52 1029.4
20230202150717 27 209 2.0 3.0 0.00 0.00 0.00 53 1029.4
20230202150215 27 185 2.0 2.0 0.00 0.00 0.00 55 1029.5
20230202145715 26 282 1.0 2.0 0.00 0.00 0.00 56 1029.1
20230202145214 25 194 1.0 2.0 0.00 0.00 0.00 58 1029.4
20230202144712 25 200 2.0 2.0 0.00 0.00 0.00 58 1029.3
20230202144210 24 223 0.0 1.0 0.00 0.00 0.00 59 1029.0
20230202143710 24 177 0.0 1.0 0.00 0.00 0.00 60 1029.0
20230202143208 24 199 1.0 2.0 0.00 0.00 0.00 60 1028.7
20230202142706 24 206 1.0 1.0 0.00 0.00 0.00 60 1028.6
20230202142206 24 193 1.0 1.0 0.00 0.00 0.00 60 1028.6
20230202141705 24 195 1.0 1.0 0.00 0.00 0.00 60 1028.4
20230202141204 24 198 1.0 1.0 0.00 0.00 0.00 60 1028.7
20230202140702 23 190 2.0 2.0 0.00 0.00 0.00 61 1028.2
20230202140200 23 195 1.0 1.0 0.00 0.00 0.00 62 1028.3
20230202135700 22 192 1.0 1.0 0.00 0.00 0.00 63 1028.4
20230202135159 22 203 1.0 1.0 0.00 0.00 0.00 64 1028.6
20230202134658 23 197 1.0 1.0 0.00 0.00 0.00 64 1028.6
20230202134157 23 215 0.0 0.0 0.00 0.00 0.00 62 1028.3
20230202133657 23 192 0.0 0.0 0.00 0.00 0.00 62 1028.3
20230202133156 22 202 0.0 0.0 0.00 0.00 0.00 63 1028.2
20230202132656 23 232 0.0 1.0 0.00 0.00 0.00 64 1027.7
20230202132155 23 255 0.0 0.0 0.00 0.00 0.00 62 1027.9
20230202131655 25 336 2.0 2.0 0.00 0.00 0.00 60 1027.9
20230202131155 25 206 0.0 1.0 0.00 0.00 0.00 57 1027.6
20230202130653 25 184 1.0 1.0 0.00 0.00 0.00 58 1027.6
20230202130153 25 202 0.0 0.0 0.00 0.00 0.00 57 1027.4
20230202125651 25 201 0.0 1.0 0.00 0.00 0.00 57 1027.5
20230202125149 25 187 3.0 3.0 0.00 0.00 0.00 58 1027.5
20230202124650 25 184 1.0 1.0 0.00 0.00 0.00 58 1027.4
20230202124149 25 211 0.0 1.0 0.00 0.00 0.00 58 1027.1
20230202123648 25 211 1.0 1.0 0.00 0.00 0.00 58 1027.5
20230202123147 26 205 0.0 1.0 0.00 0.00 0.00 57 1027.4